�N����,����,�~����,�C��,���x,�C��,����,���ϕ���,�ő�u�ԕ���,�ő厞����,���˗�,�I�_���x,�n�����x,�ő啗���N��,DTYPE
"23/07/31","00:10",0.0,27.3,77.3,1009.0,336.5,1.2,1.8,339.7,0.00,23.0,26.3,"00:00:32",1
"23/07/31","00:20",0.0,26.9,78.4,1009.0,326.0,1.0,1.6,339.4,0.00,22.9,26.5,"00:12:24",1
"23/07/31","00:30",0.0,26.7,79.3,1009.3,273.7,0.7,1.1,249.1,0.00,22.9,26.4,"00:26:00",1
"23/07/31","00:40",0.0,26.7,79.9,1009.3,299.4,0.8,1.2,334.8,0.00,23.0,26.4,"00:33:04",1
"23/07/31","00:50",0.0,26.5,80.7,1009.3,318.7,1.0,2.0,326.2,0.00,23.0,26.2,"00:49:44",1
"23/07/31","01:00",0.0,26.3,81.2,1009.0,336.0,1.1,1.8,335.6,0.00,22.9,26.3,"00:57:20",1
"23/07/31","01:10",0.0,26.3,81.7,1009.0,331.1,1.1,1.7,339.3,0.00,23.0,26.0,"01:07:44",1
"23/07/31","01:20",0.0,26.0,82.9,1009.0,337.5,1.2,1.9,343.1,0.00,22.9,26.4,"01:11:04",1
"23/07/31","01:30",0.0,25.8,83.7,1009.0,306.1,1.1,1.9,315.0,0.00,22.9,26.1,"01:28:40",1
"23/07/31","01:40",0.0,25.8,84.2,1009.0,328.1,1.2,2.4,337.5,0.00,23.0,26.2,"01:30:24",1
"23/07/31","01:50",0.0,25.8,84.4,1009.3,319.0,1.3,1.9,320.7,0.00,23.0,26.1,"01:40:56",1
"23/07/31","02:00",0.0,25.7,84.4,1009.3,329.1,1.1,2.5,350.4,0.00,22.9,26.1,"01:50:08",1
"23/07/31","02:10",0.0,25.7,84.5,1009.0,354.9,0.8,1.3,11.6,0.00,22.9,25.8,"02:07:36",1
"23/07/31","02:20",0.0,25.5,84.8,1008.8,314.0,0.7,1.1,326.8,0.00,22.8,26.0,"02:13:20",1
"23/07/31","02:30",0.0,25.4,85.2,1008.8,335.5,1.6,2.9,350.5,0.00,22.8,26.1,"02:28:48",1
"23/07/31","02:40",0.0,25.5,85.3,1009.3,330.8,1.3,2.2,342.1,0.00,22.9,26.0,"02:32:40",1
"23/07/31","02:50",0.0,25.5,85.1,1008.8,320.4,1.1,1.9,322.7,0.00,22.9,25.9,"02:44:16",1
"23/07/31","03:00",0.0,25.5,84.9,1009.3,324.5,1.3,2.0,344.1,0.00,22.8,25.7,"02:50:56",1
"23/07/31","03:10",0.0,25.5,84.8,1009.3,278.4,0.8,1.8,299.9,0.00,22.8,25.9,"03:01:36",1
"23/07/31","03:20",0.0,25.4,84.7,1009.5,300.8,1.1,1.7,293.4,0.00,22.7,25.6,"03:18:08",1
"23/07/31","03:30",0.0,25.4,84.7,1009.3,313.1,1.1,1.7,342.0,0.00,22.7,25.8,"03:23:52",1
"23/07/31","03:40",0.0,25.4,84.7,1009.5,315.4,0.8,1.8,332.1,0.00,22.7,25.8,"03:30:16",1
"23/07/31","03:50",0.0,25.3,84.9,1009.3,333.5,1.2,2.6,343.6,0.00,22.6,25.8,"03:49:52",1
"23/07/31","04:00",0.0,25.3,85.0,1009.3,335.4,1.3,2.4,337.6,0.00,22.6,25.8,"03:50:48",1
"23/07/31","04:10",0.0,25.5,85.0,1009.7,341.3,1.2,2.2,353.7,0.00,22.8,25.6,"04:06:40",1
"23/07/31","04:20",0.0,25.5,85.0,1009.7,341.5,1.5,2.5,344.7,0.00,22.8,25.8,"04:17:44",1
"23/07/31","04:30",0.0,25.5,84.9,1009.7,334.4,1.6,2.7,336.7,0.00,22.8,25.5,"04:25:28",1
"23/07/31","04:40",0.0,25.5,84.7,1009.3,326.1,1.3,2.4,346.9,0.00,22.8,25.5,"04:31:52",1
"23/07/31","04:50",0.0,25.5,84.4,1009.7,285.4,0.8,2.2,246.6,0.00,22.7,25.4,"04:42:40",1
"23/07/31","05:00",0.0,25.6,84.0,1009.5,317.3,1.3,2.0,312.0,0.00,22.7,25.5,"04:58:16",1
"23/07/31","05:10",0.0,25.6,83.8,1009.5,333.1,1.5,2.5,329.5,0.00,22.7,25.4,"05:04:16",1
"23/07/31","05:20",0.0,25.6,83.8,1009.3,341.3,1.1,1.9,345.1,0.00,22.7,25.6,"05:10:02",1
"23/07/31","05:30",0.0,25.5,84.0,1009.7,343.5,1.2,1.9,347.7,0.00,22.6,25.5,"05:26:08",1
"23/07/31","05:40",0.0,25.4,84.5,1009.7,341.5,1.3,2.8,340.5,0.00,22.6,25.4,"05:38:00",1
"23/07/31","05:50",0.0,25.6,84.5,1009.7,328.1,1.2,2.8,344.2,0.00,22.8,25.4,"05:42:40",1
"23/07/31","06:00",0.0,25.8,84.4,1010.0,316.8,0.8,1.4,339.3,0.01,23.0,25.5,"05:50:24",1
"23/07/31","06:10",0.0,25.8,84.2,1009.5,337.5,1.3,3.2,344.4,0.02,23.0,25.6,"06:05:52",1
"23/07/31","06:20",0.0,26.0,84.3,1009.3,328.1,1.0,2.4,342.9,0.03,23.2,25.7,"06:12:32",1
"23/07/31","06:30",0.0,26.2,84.0,1009.3,332.6,1.1,1.9,340.0,0.03,23.3,25.6,"06:22:16",1
"23/07/31","06:40",0.0,26.3,83.4,1009.5,326.7,1.0,1.8,343.1,0.04,23.3,25.6,"06:37:20",1
"23/07/31","06:50",0.0,26.8,82.8,1009.5,339.4,1.1,2.2,334.6,0.07,23.7,25.3,"06:41:36",1
"23/07/31","07:00",0.0,27.4,81.4,1009.5,352.6,0.6,1.6,356.0,0.09,24.0,25.5,"06:52:48",1
"23/07/31","07:10",0.0,27.9,80.3,1009.3,333.4,0.3,1.0,20.6,0.09,24.2,25.3,"07:00:24",1
"23/07/31","07:20",0.0,28.0,78.2,1009.0,309.2,0.3,1.0,344.7,0.08,23.9,25.4,"07:12:40",1
"23/07/31","07:30",0.0,28.2,76.7,1008.8,276.6,0.2,0.8,346.4,0.09,23.8,25.4,"07:20:24",1
"23/07/31","07:40",0.0,28.6,75.6,1008.3,269.4,0.1,0.8,23.5,0.08,23.9,25.3,"07:32:08",1
"23/07/31","07:50",0.0,28.6,74.9,1008.6,312.9,0.5,1.1,258.3,0.09,23.7,25.5,"07:49:12",1
"23/07/31","08:00",0.0,28.7,74.4,1008.6,336.3,0.5,1.3,347.8,0.09,23.7,25.4,"07:53:20",1
"23/07/31","08:10",0.0,28.7,74.4,1008.6,351.0,0.7,1.3,345.6,0.08,23.7,25.5,"08:02:16",1
"23/07/31","08:20",0.0,28.8,74.4,1008.3,1.6,0.8,1.4,356.3,0.09,23.8,25.4,"08:12:48",1
"23/07/31","08:30",0.0,29.1,74.1,1008.8,17.0,0.7,1.6,28.6,0.12,24.1,25.7,"08:22:08",1
"23/07/31","08:40",0.0,29.7,73.3,1008.8,4.3,0.6,1.7,355.3,0.17,24.4,25.7,"08:31:04",1
"23/07/31","08:50",0.0,30.2,70.3,1009.0,28.1,0.7,1.8,348.1,0.25,24.2,25.5,"08:48:48",1
"23/07/31","09:00",0.0,31.0,68.5,1009.7,22.8,0.5,1.7,351.4,0.27,24.6,25.5,"08:50:24",1
"23/07/31","09:10",0.0,31.8,65.9,1010.2,43.1,0.6,1.6,58.4,0.32,24.7,25.6,"09:08:24",1
"23/07/31","09:20",0.0,32.6,64.6,1010.7,84.0,0.6,2.0,96.8,0.37,25.1,25.8,"09:17:12",1
"23/07/31","09:30",0.0,32.8,63.4,1010.7,25.3,0.6,2.1,12.2,0.38,25.0,25.7,"09:22:32",1
"23/07/31","09:40",0.0,32.9,62.4,1010.9,21.5,1.0,2.2,357.2,0.42,24.8,26.0,"09:33:36",1
"23/07/31","09:50",0.0,33.2,60.4,1011.6,102.8,0.8,1.9,120.9,0.43,24.5,25.8,"09:46:00",1
"23/07/31","10:00",0.0,33.2,62.5,1011.2,185.9,0.8,3.1,192.4,0.38,25.1,25.9,"09:51:28",1
"23/07/31","10:10",0.0,33.3,61.2,1011.6,89.4,0.8,2.0,147.1,0.36,24.8,26.0,"10:04:32",1
"23/07/31","10:20",0.0,32.4,62.0,1010.7,198.6,1.6,3.7,225.8,0.31,24.2,26.1,"10:14:00",1
"23/07/31","10:30",0.0,33.2,60.3,1010.9,29.6,0.8,2.0,344.3,0.38,24.5,26.2,"10:27:04",1
"23/07/31","10:40",0.0,34.0,59.4,1010.7,102.3,0.8,2.1,6.5,0.45,25.0,26.2,"10:39:36",1
"23/07/31","10:50",0.0,33.8,58.9,1010.7,17.1,1.1,2.2,352.2,0.31,24.7,26.2,"10:43:28",1
"23/07/31","11:00",0.0,34.0,58.5,1010.7,5.3,0.6,2.1,9.2,0.37,24.7,26.5,"10:58:48",1
"23/07/31","11:10",0.0,34.4,56.3,1010.9,49.5,0.8,2.2,4.9,0.38,24.5,26.4,"11:08:08",1
"23/07/31","11:20",0.0,34.2,55.4,1010.2,8.9,0.8,2.4,1.8,0.31,24.0,26.5,"11:16:24",1
"23/07/31","11:30",0.0,33.7,57.3,1010.2,356.3,1.0,2.4,344.2,0.28,24.1,26.6,"11:22:16",1
"23/07/31","11:40",0.0,33.9,54.9,1010.0,49.3,0.6,1.4,58.9,0.25,23.6,26.5,"11:36:40",1
"23/07/31","11:50",0.0,34.1,54.9,1010.4,260.4,0.5,1.6,49.6,0.27,23.8,26.7,"11:40:08",1
"23/07/31","12:00",0.0,34.1,53.9,1010.0,333.7,0.6,1.9,355.1,0.25,23.5,26.5,"11:58:24",1
"23/07/31","12:10",0.0,34.6,55.7,1010.0,27.8,0.7,2.5,345.2,0.29,24.5,26.7,"12:07:44",1
"23/07/31","12:20",0.0,34.0,55.0,1010.0,318.3,1.2,2.6,337.5,0.36,23.7,26.8,"12:15:52",1
"23/07/31","12:30",0.0,34.4,54.9,1009.7,282.4,0.8,2.1,348.1,0.38,24.1,26.9,"12:25:04",1
"23/07/31","12:40",0.0,33.8,54.5,1009.7,323.5,1.5,3.5,236.7,0.29,23.4,26.9,"12:33:04",1
"23/07/31","12:50",0.0,34.2,54.4,1009.7,350.2,1.3,2.7,357.7,0.34,23.7,26.7,"12:43:20",1
"23/07/31","13:00",0.0,34.2,54.5,1009.5,330.4,1.0,2.1,316.8,0.26,23.8,27.1,"12:56:56",1
"23/07/31","13:10",0.0,34.6,52.9,1009.5,311.1,1.5,3.3,355.3,0.50,23.6,27.1,"13:06:32",1
"23/07/31","13:20",0.0,34.6,52.7,1009.5,285.9,1.1,2.8,229.5,0.30,23.6,27.1,"13:13:28",1
"23/07/31","13:30",0.0,34.7,52.7,1009.5,335.9,1.6,4.0,353.2,0.47,23.7,27.1,"13:24:56",1
"23/07/31","13:40",0.0,35.1,53.8,1009.3,314.7,1.2,2.8,338.1,0.39,24.4,27.3,"13:34:48",1
"23/07/31","13:50",0.0,34.7,54.0,1009.3,306.8,1.3,3.3,351.6,0.33,24.1,27.5,"13:45:04",1
"23/07/31","14:00",0.0,34.9,54.1,1009.0,320.7,1.6,3.9,335.3,0.40,24.3,27.4,"13:52:24",1
"23/07/31","14:10",0.0,35.1,51.6,1008.8,318.5,1.5,3.3,345.6,0.39,23.7,27.5,"14:03:36",1
"23/07/31","14:20",0.0,34.7,52.3,1008.8,322.3,1.7,4.3,342.7,0.28,23.5,27.4,"14:18:40",1
"23/07/31","14:30",0.0,34.6,52.9,1008.3,316.7,1.6,3.6,332.4,0.28,23.6,27.4,"14:22:40",1
"23/07/31","14:40",0.0,34.1,54.7,1008.1,334.3,1.7,3.3,347.5,0.20,23.7,27.7,"14:37:28",1
"23/07/31","14:50",0.0,33.9,55.0,1007.6,334.2,1.6,4.0,346.9,0.19,23.6,27.5,"14:46:32",1
"23/07/31","15:00",0.0,33.6,54.5,1007.1,333.3,1.8,4.3,344.2,0.18,23.2,27.5,"14:56:24",1
"23/07/31","15:10",0.0,33.8,54.1,1007.4,317.0,1.3,2.6,317.0,0.18,23.3,27.7,"15:04:00",1
"23/07/31","15:20",0.0,33.7,54.3,1007.4,279.8,1.3,3.5,291.7,0.17,23.2,27.7,"15:14:08",1
"23/07/31","15:30",0.0,33.6,54.5,1007.1,324.4,1.2,2.8,358.5,0.14,23.2,27.7,"15:22:24",1
"23/07/31","15:40",0.0,33.5,54.4,1007.4,312.6,1.2,2.6,319.1,0.11,23.1,27.6,"15:38:32",1
"23/07/31","15:50",0.0,33.3,55.6,1006.9,319.2,1.3,3.7,348.1,0.09,23.3,27.7,"15:45:44",1
"23/07/31","16:00",0.0,33.0,55.8,1006.4,317.5,1.5,4.2,345.5,0.07,23.0,27.5,"15:59:12",1
"23/07/31","16:10",0.0,32.8,56.6,1006.2,339.7,1.6,4.3,346.4,0.09,23.1,27.6,"16:04:56",1
"23/07/31","16:20",0.0,32.8,57.1,1006.2,310.3,1.3,3.7,334.5,0.08,23.2,27.7,"16:12:32",1
"23/07/31","16:30",0.0,32.6,58.4,1006.2,313.2,1.5,3.7,350.9,0.06,23.4,27.3,"16:25:28",1
"23/07/31","16:40",0.0,32.3,59.5,1005.7,303.8,1.2,2.9,298.8,0.05,23.4,27.5,"16:30:08",1
"23/07/31","16:50",0.0,32.1,60.3,1006.0,301.9,1.5,3.5,263.8,0.05,23.5,27.6,"16:44:32",1
"23/07/31","17:00",0.0,32.0,60.7,1005.5,321.8,2.0,3.6,324.2,0.04,23.5,27.3,"16:50:48",1
"23/07/31","17:10",0.0,31.8,61.4,1005.7,329.9,1.6,3.5,334.0,0.03,23.5,27.3,"17:09:04",1
"23/07/31","17:20",0.0,31.6,61.9,1005.7,314.7,1.3,3.2,284.1,0.02,23.4,27.4,"17:19:36",1
"23/07/31","17:30",0.0,31.5,62.2,1005.5,321.8,1.6,4.1,323.2,0.01,23.4,27.3,"17:22:16",1
"23/07/31","17:40",0.0,31.3,62.7,1005.5,298.9,1.1,2.6,358.6,0.00,23.4,27.3,"17:31:12",1
"23/07/31","17:50",0.0,31.1,63.4,1005.2,326.0,1.5,3.6,351.2,0.00,23.4,27.3,"17:43:52",1
"23/07/31","18:00",0.0,30.9,64.0,1005.2,330.6,1.3,2.4,334.4,0.00,23.3,27.2,"17:55:04",1
"23/07/31","18:10",0.0,30.7,64.2,1005.2,334.2,1.6,4.9,343.1,0.00,23.2,27.3,"18:07:28",1
"23/07/31","18:20",0.0,30.5,64.7,1005.2,346.8,1.3,4.0,355.2,0.00,23.1,27.1,"18:16:32",1
"23/07/31","18:30",0.0,30.4,64.7,1005.2,345.1,1.3,2.9,351.9,0.00,23.0,27.0,"18:20:16",1
"23/07/31","18:40",0.0,30.4,65.3,1005.0,343.7,1.1,2.5,336.5,0.00,23.2,27.2,"18:34:24",1
"23/07/31","18:50",0.0,30.0,65.9,1004.8,357.6,1.1,2.5,353.9,0.00,23.0,27.0,"18:42:00",1
"23/07/31","19:00",0.0,29.9,65.8,1005.0,328.9,1.1,2.8,296.5,0.00,22.8,27.0,"18:50:56",1
"23/07/31","19:10",0.0,29.9,65.7,1005.0,333.2,0.8,1.8,354.0,0.00,22.8,27.1,"19:02:48",1
"23/07/31","19:20",0.0,29.8,66.6,1005.0,38.0,0.7,1.9,350.1,0.00,23.0,26.9,"19:11:20",1
"23/07/31","19:30",0.0,29.5,67.2,1005.2,21.6,0.5,1.3,338.2,0.00,22.8,27.0,"19:21:52",1
"23/07/31","19:40",0.0,29.5,68.0,1005.7,3.9,0.7,1.3,25.5,0.00,23.0,27.0,"19:34:32",1
"23/07/31","19:50",0.0,29.2,68.8,1006.0,340.7,1.0,2.5,347.1,0.00,22.9,26.9,"19:48:56",1
"23/07/31","20:00",0.0,29.2,68.9,1006.0,357.4,1.1,2.5,0.6,0.00,22.9,26.8,"19:50:56",1
"23/07/31","20:10",0.0,28.9,70.5,1006.0,306.5,0.8,1.9,324.6,0.00,23.0,26.8,"20:02:32",1
"23/07/31","20:20",0.0,28.8,70.7,1006.7,274.9,0.8,1.7,316.0,0.00,23.0,26.7,"20:15:52",1
"23/07/31","20:30",0.0,29.0,71.2,1006.4,350.1,1.1,2.0,341.8,0.00,23.3,26.7,"20:24:56",1
"23/07/31","20:40",0.0,28.6,72.5,1006.4,305.1,1.0,2.0,342.4,0.00,23.2,26.6,"20:30:08",1
"23/07/31","20:50",0.2,28.1,75.2,1006.4,349.9,1.1,3.7,344.5,0.00,23.3,26.7,"20:40:40",1
"23/07/31","21:00",0.0,27.1,79.4,1006.2,338.1,1.3,2.9,348.1,0.00,23.3,26.7,"20:58:56",1
"23/07/31","21:10",0.0,26.6,82.0,1006.4,316.8,0.8,2.2,338.8,0.00,23.3,26.7,"21:00:16",1
"23/07/31","21:20",0.0,26.5,83.6,1006.7,254.3,1.5,3.1,241.3,0.00,23.5,26.6,"21:12:40",1
"23/07/31","21:30",0.0,26.4,84.6,1006.7,314.4,0.7,1.4,334.6,0.00,23.6,26.6,"21:21:28",1
"23/07/31","21:40",0.2,26.0,85.2,1006.7,320.9,0.5,1.3,352.5,0.00,23.4,26.7,"21:34:32",1
"23/07/31","21:50",0.0,26.0,86.1,1006.4,10.4,0.5,1.3,340.2,0.00,23.5,26.4,"21:41:28",1
"23/07/31","22:00",0.0,25.9,86.9,1006.9,313.8,1.1,2.0,324.9,0.00,23.6,26.4,"21:58:48",1
"23/07/31","22:10",0.0,25.7,87.5,1007.1,329.4,1.8,3.3,343.8,0.00,23.5,26.3,"22:01:20",1
"23/07/31","22:20",0.0,25.7,87.7,1007.4,334.3,1.5,3.7,311.6,0.00,23.5,26.5,"22:15:20",1
"23/07/31","22:30",0.0,25.8,87.4,1007.4,328.3,2.0,4.9,337.4,0.00,23.6,26.4,"22:20:02",1
"23/07/31","22:40",0.0,26.0,87.2,1007.6,290.7,1.5,3.5,335.1,0.00,23.7,26.1,"22:34:24",1
"23/07/31","22:50",0.0,26.0,86.8,1007.6,294.3,1.6,4.0,238.8,0.00,23.7,26.3,"22:42:56",1
"23/07/31","23:00",0.0,26.1,86.7,1007.6,342.3,0.8,1.9,339.4,0.00,23.7,26.3,"22:57:36",1
"23/07/31","23:10",0.0,26.0,86.7,1006.9,352.0,1.3,2.2,354.1,0.00,23.6,26.2,"23:05:12",1
"23/07/31","23:20",0.0,25.8,86.8,1007.1,41.9,0.5,2.1,350.3,0.00,23.5,26.1,"23:10:32",1
"23/07/31","23:30",0.0,25.9,87.1,1006.9,294.7,0.7,1.9,239.9,0.00,23.6,26.1,"23:27:20",1
"23/07/31","23:40",0.0,25.9,87.1,1007.4,283.8,1.2,2.5,328.3,0.00,23.6,26.1,"23:37:52",1
"23/07/31","23:50",0.0,25.8,87.1,1007.1,292.3,0.7,1.3,257.5,0.00,23.5,26.2,"23:40:32",1
"23/07/31","24:00",0.0,25.8,87.2,1007.1,348.5,1.0,1.7,355.6,0.00,23.5,25.9,"23:55:20",1
